Flag Weather past 2 weeks in Odesa, Ukraine

Now
32 °F

Overcast.


Feels Like: 24 °F
Forecast: 31 / 35 °F
Wind: 10 mph from Northeast

Location: Odesa Airport

Current Time: Nov 22, 2014 at 12:42:10 PM

Latest Report: Nov 22, 2014 at 12:00 PM


Visibility: N/A

Pressure: 30.24 "Hg

Humidity: 87%

Dew point: 28 °F

Location of OdesaLocation

Historic Weather in Odesa — Graph

°F

Odesa temperature yesterday

Maximum temperature yesterday: 43 °F (at 12:00 AM)
Minimum temperature yesterday: 36 °F (at 12:48 PM)
Average temperature yesterday: 38 °F

Past Weeks' High & Low Weather Summary

 TemperatureHumidityPressure
High61 °F (Nov 8, 12:00 PM)100% (Nov 7, 10:00 PM)30.30 "Hg (Nov 7, 10:00 PM)
Low32 °F (Nov 22, 5:30 AM)61% (Nov 16, 8:00 PM)29.95 "Hg (Nov 20, 5:47 AM)
Average44 °F88%30.14 "Hg
* Reported Nov 7 11:00 AM — Nov 22 11:30 AM, Odesa, Weather by CustomWeather, © 2014

Note: Actual official high and low records may vary slightly from our data, if they occured in-between our weather recording intervals... More about our weather records

Advertising

Odesa weather history for previous 24 hours

 ConditionsComfort  
Time TempWeatherWind HumidityBarometerVisibility
11:30 AM
Nov 22
32 °FOvercast.10 mph87%30.24 "HgN/A
11:00 AM32 °FOvercast.10 mph80%30.24 "HgN/A
10:30 AM32 °FOvercast.13 mph80%30.24 "HgN/A
10:00 AM32 °FOvercast.13 mph75%30.24 "HgN/A
9:30 AM32 °FOvercast.10 mph75%30.24 "HgN/A
9:00 AM32 °FOvercast.13 mph75%30.24 "HgN/A
8:30 AM32 °FOvercast.13 mph80%30.24 "HgN/A
8:00 AM32 °FOvercast.13 mph75%30.21 "HgN/A
7:30 AM32 °FOvercast.10 mph75%30.21 "HgN/A
7:00 AM32 °FOvercast.13 mph75%30.21 "HgN/A
6:30 AM32 °FPassing clouds.10 mph75%30.21 "HgN/A
6:00 AM32 °FPassing clouds.10 mph75%30.18 "HgN/A
5:30 AM32 °FPassing clouds.13 mph69%30.18 "HgN/A
5:00 AM34 °FOvercast.13 mph65%30.18 "HgN/A
4:30 AM34 °FOvercast.10 mph70%30.18 "HgN/A
4:00 AM34 °FOvercast.13 mph70%30.18 "HgN/A
3:30 AM36 °FOvercast.13 mph70%30.15 "HgN/A
3:00 AM36 °FOvercast.13 mph65%30.18 "HgN/A
2:30 AM36 °FOvercast.15 mph70%30.18 "HgN/A
2:00 AM36 °FOvercast.15 mph65%30.15 "HgN/A
1:30 AM36 °FOvercast.13 mph70%30.15 "HgN/A
1:00 AM36 °FOvercast.13 mph70%30.15 "HgN/A
12:30 AM37 °FOvercast.13 mph70%30.15 "HgN/A
12:00 AM37 °FOvercast.13 mph70%30.15 "HgN/A
11:30 PM
Nov 21
37 °FOvercast.13 mph70%30.15 "HgN/A
11:00 PM37 °FOvercast.13 mph70%30.15 "HgN/A
10:30 PM37 °FOvercast.13 mph75%30.15 "HgN/A
10:00 PM37 °FOvercast.13 mph81%30.15 "HgN/A
9:30 PM37 °FOvercast.13 mph81%30.12 "HgN/A
9:00 PM39 °FOvercast.15 mph81%30.12 "HgN/A
8:30 PM39 °FOvercast.17 mph75%30.12 "HgN/A
8:00 PM39 °FOvercast.17 mph75%30.09 "HgN/A
7:30 PM39 °FOvercast.17 mph81%30.09 "HgN/A
7:00 PM37 °FOvercast.15 mph87%30.09 "HgN/A
6:30 PM37 °FLight rain. Overcast.15 mph87%30.09 "HgN/A
6:00 PM37 °FLight rain. Overcast.13 mph87%30.09 "HgN/A
5:30 PM37 °FSprinkles. Partly cloudy.15 mph87%30.09 "HgN/A
5:00 PM37 °FLight rain. Overcast.15 mph87%30.09 "HgN/A
4:30 PM37 °FLight rain. Overcast.15 mph87%30.09 "HgN/A
4:00 PM37 °FSprinkles. Broken clouds.15 mph87%30.09 "HgN/A
3:30 PM37 °FOvercast.17 mph87%30.07 "HgN/A
3:00 PM37 °FOvercast.17 mph87%30.07 "HgN/A
2:30 PM37 °FOvercast.15 mph87%30.07 "HgN/A
2:00 PM37 °FOvercast.15 mph87%30.07 "HgN/A
1:30 PM36 °FLight rain. Overcast.15 mph93%30.07 "HgN/A
1:00 PM36 °FLow clouds.15 mph93%30.07 "HgN/A
12:48 PM36 °FLow clouds.15 mph93%30.07 "HgN/A
12:30 PM37 °FLow clouds.15 mph87%30.07 "HgN/A
12:00 PM37 °FLow clouds.13 mph87%30.07 "HgN/A
Weather by CustomWeather, © 2014

See weather overviewHow to use our weather pages